Webcam

Mit webcam er opstillet i Qinngorput og har retning mod den sydlige del af Nuuk. Billedet opdateres automatisk.

BGGH 190450Z AUTO 16003KT 9999NDV FEW120/// M11/M14 Q0994